www.pogodaiklimat.ru

Погода и климат >> Архив погоды >> Россия >> Чечня >> Шелковская


ПОГОДА в Шелковской

  • Прогноз погоды в Шелковской
  • Монитор погоды в Шелковской

АРХИВ ПОГОДЫ в Шелковской

Время (UTC), дата Ветер
(напр.,м/с)
 
Видим.   Явления Облачность Т
(С)
Тd
(С)
f
(%)
Тe
(С)
Тes
(С)
Комфортность P
(гПа)
Po
(гПа)
Тmin
(С)
Tmax
(С)
R
(мм)
R24
(мм)
S
(см)
18 16.07 СЗ 1 10 км ясно +25.3 +17.1 60 +29 +29 душно 1005.4 1004.0
21 16.07 ЮЗ 3 10 км 3/0
[Ac cast]
+23.2 +17.6 71 +29 +29 душно 1006.5 1005.2
00 17.07 З 4 10 км 3/0
[Ac lent]
+22.7 +16.3 67 +27 +27 душно 1008.1 1006.8
03 17.07 З 5 10 км 4/0
[Ac lent]
+22.3 +17.1 72 +27 +27 душно 1010.0 1008.7 +22.7
06 17.07 З 5 10 км 8/0
[Ac lent]
+24.6 +16.6 61 +28 +30 душно 1009.8 1008.5
09 17.07 СЗ 4 10 км 5/5 600 м
[Cu med, cong]
+28.5 +15.1 44 +31 +37 душно 1008.1 1006.8
12 17.07 ЮЗ 2 10 км 5/0
[Ac lent]
+30.3 +15.0 39 +32 +39 жарко 1006.9 1005.6
15 17.07 ЮЗ 4 10 км 8/0
[Ac lent]
+27.4 +16.2 50 +31 +31 душно 1006.7 1005.4 +30.3
18 17.07 ЮЗ 2 10 км 10/0
[Ac lent]
+25.3 +16.7 59 +29 +29 душно 1007.3 1006.0
21 17.07 ЮЗ 2 10 км 6/0
[Ac lent]
+24.1 +16.7 63 +28 +28 душно 1006.8 1005.5
00 18.07 ЮЗ 2 10 км 5/0
[Ac lent]
+22.0 +17.2 74 +26 +26 душно 1006.1 1004.7
03 18.07 Ю 1 10 км ясно +22.7 +17.7 73 +28 +30 душно 1006.5 1005.2 +22.0
06 18.07 В 3 10 км ясно +28.8 +18.0 52 +33 +43 очень
душно
1005.7 1004.4
09 18.07 В 8
{11}
10 км ясно +32.5 +15.5 36 +35 +38 душно 1004.6 1003.3
12 18.07 В 6 10 км ясно +33.5 +14.4 32 +35 +39 душно 1004.2 1002.9
15 18.07 СВ 5 10 км ясно +30.6 +13.6 35 +32 +33 жарко 1005.4 1004.1 +33.5
18 18.07 штиль 0 10 км 3/0
[Ac lent]
+23.5 +16.5 65 +27 +27 душно 1007.7 1006.4
21 18.07 З 2 10 км 4/0
[Ac lent]
+24.2 +17.1 65 +28 +28 душно 1008.1 1006.8
00 19.07 ЮЗ 3 10 км 4/0
[Ac lent]
+23.4 +18.3 73 +29 +29 душно 1008.8 1007.5
03 19.07 З 3 10 км в посл. час ливневой дождь {гроза} 10/10 600 м
[Sc diur, vesp]
+21.7 +19.5 87 +27 +27 душно 1011.2 1009.9 +21.5 1
06 19.07 З 3 10 км 8/0
[Ac lent]
+25.1 +19.8 72 +31 +34 очень
душно
1011.6 1010.3 260
09 19.07 З 3 10 км ясно +30.2 +17.6 47 +34 +50 очень
душно
1011.7 1010.4
12 19.07 В 3 10 км ясно +32.7 +16.4 38 +36 +45 очень
душно
1010.7 1009.4
15 19.07 ЮЗ 4 10 км 3/0
[Ac lent]
+28.8 +19.4 57 +35 +35 очень
душно
1011.4 1010.1 +32.7
18 19.07 ЮЗ 2 10 км 10/0
[Ac lent]
+26.7 +19.1 63 +32 +32 очень
душно
1013.2 1011.9
21 19.07 З 6-10
{10}
10 км 6/0
[Ac lent]
+25.7 +18.8 66 +31 +31 очень
душно
1014.6 1013.3
00 20.07 З 3 10 км 6/0
[Ac lent]
+22.9 +17.5 72 +28 +28 душно 1015.6 1014.3
03 20.07 З 5 10 км 10/10 600 м
[Sc]
+22.6 +17.7 74 +28 +28 душно 1017.2 1015.8 +22.6
06 20.07 З 4 10 км 3/0
[Ac lent]
+25.8 +17.1 59 +30 +36 душно 1017.6 1016.3
09 20.07 З 3 10 км 3/0
[Ac lent]
+29.9 +18.3 50 +35 +47 очень
душно
1016.9 1015.6
12 20.07 В 2 10 км 6/0
[Ac lent]
+30.8 +18.1 47 +35 +41 очень
душно
1015.9 1014.6
15 20.07 ЮЗ 3 10 км 8/0
[Ac lent]
+30.2 +18.5 50 +35 +36 очень
душно
1015.9 1014.6 +30.8
18 20.07 ЮЗ 2 10 км 5/0
[Ac lent]
+26.3 +19.2 65 +32 +32 очень
душно
1016.6 1015.3
21 20.07 ЮЗ 1 10 км 6/0
[Ac lent]
+24.8 +19.2 71 +30 +30 душно 1016.0 1014.7
00 21.07 ЮВ 1 10 км 5/0
[Ac lent]
+21.6 +19.1 86 +27 +27 душно 1015.8 1014.5
03 21.07 В 1 10 км 8/0
[Ac cast]
+22.0 +19.5 86 +28 +28 душно 1016.2 1014.9 +22.0
06 21.07 В 5 10 км 5/0
[Ac lent]
+28.3 +19.3 58 +34 +38 очень
душно
1015.0 1013.7
09 21.07 В 9-14
{14}
10 км 5/0
[Ac lent]
+32.9 +15.2 34 +35 +36 душно 1012.5 1011.2
12 21.07 В 10-14
{14}
10 км 4/0
[Ac lent]
+33.0 +14.9 34 +35 +35 душно 1011.0 1009.7
15 21.07 В 8-13
{14}
10 км 6/0
[Ac lent]
+30.1 +15.8 42 +33 +33 душно 1010.8 1009.4 +33.0
18 21.07 В 6
{12}
10 км ясно +26.2 +19.3 66 +32 +32 очень
душно
1010.7 1009.4
21 21.07 СВ 2 10 км 9/0
[Ac lent]
+24.3 +20.2 78 +30 +30 очень
душно
1010.6 1009.3
00 22.07 СЗ 2 10 км 10/10 600 м
[Sc]
+23.9 +20.8 83 +30 +30 очень
душно
1011.3 1010.0
03 22.07 З 3 10 км 9/0
[Ac lent]
+23.8 +20.2 80 +29 +30 душно 1012.2 1011.0 +23.8
06 22.07 З 3 10 км 10/0
[Ac lent]
+26.9 +19.7 65 +33 +35 очень
душно
1011.6 1010.3
09 22.07 З 4 10 км 10/0
[Ac lent]
+31.6 +18.0 44 +36 +38 очень
душно
1010.9 1009.6
12 22.07 В 2 10 км 10/0
[Ac lent]
+32.4 +17.7 42 +37 +39 очень
душно
1011.2 1009.8
15 22.07 ЮЗ 6
{10}
10 км 10/0
[Ac lent]
+27.4 +17.8 56 +32 +32 очень
душно
1012.5 1011.2 +32.4
18 22.07 СЗ 5
{11}
10 км 10/10 600 м
[Sc]
+26.5 +14.1 46 +29 +29 жарко 1014.8 1013.5
21 22.07 З 3 10 км {гроза, ливн. осадки} 10/10 600 м
[Cb cap]
+21.0 +19.1 89 +26 +26 душно 1014.7 1013.4
00 23.07 З 2 10 км {ливн. осадки} 10/10 600 м
[Sc]
+20.0 +18.1 89 +24 +24 комфорт 1014.9 1013.6
03 23.07 штиль 0 10 км 9/9 600 м
[Sc]
+20.4 +18.4 88 +24 +24 комфорт 1014.1 1012.8 +20.0 0.7
06 23.07 С 3 10 км 8/4 600 м
[Sc Ac lent]
+22.9 +17.9 73 +28 +31 душно 1012.4 1011.1
09 23.07 В 4 10 км {ливн. осадки} 8/8 600 м
[Sc]
+28.1 +18.5 56 +33 +36 очень
душно
1011.2 1009.9
12 23.07 В 5 10 км 10/10 600 м
[Sc]
+28.7 +19.5 58 +35 +35 очень
душно
1009.7 1008.4
15 23.07 В 4 10 км 4/4 600 м
[Sc]
+28.5 +17.7 52 +33 +33 очень
душно
1009.5 1008.2 +28.7 0.4

 

Местоположение метеостанции Шелковская (Чечня, Россия): широта 43.53 долгота 46.37 высота над уровнем моря 13 м.

В архиве по умолчанию представлена погода в Шелковской за последнюю неделю. Архивные данные за месяц целиком и за предыдущие месяцы, начиная с января 2011 года, Вы можете получить, выбрав интересующий диапазон дат из раскрывающегося списка и нажав кнопку "Ввод!".


*Определитесь, кто Вы:
робот инопланетянин человек

Внимание! Время в таблицах - всемирное. Для получения местного времени необходимо прибавить поправку, которая равна 3 ч.

Смотрите также архив погоды в соседних городах и на ближайших метеорологических станциях:

Погода в Гудермесе (Чечня, Россия) (28 км)
Погода в Бабаюрте (Дагестан, Россия) (34 км)
Погода в Хасавюрте (Дагестан, Россия) (35 км)
Погода в Кизляре (Дагестан, Россия) (44 км)
Погода в Грозном (Чечня, Россия) (61 км)
Погода в Терекли-Мектебе (Дагестан, Россия) (77 км)
Погода в Наурской (Чечня, Россия) (86 км)
Погода в Шатое (Чечня, Россия) (91 км)
Погода в Кочубее (Дагестан, Россия) (98 км)
Погода в Буйнакске (Дагестан, Россия) (100 км)

Пояснения к столбцам:

Ветер - указаны скорость ветра в м/с - средняя за 10 мин, порывы в срок и между сроками (в фигурных скобках) и направление, откуда дует ветер: С - северный, СВ - северо-восточный, В - восточный, ЮВ - юго-восточный, Ю - южный, ЮЗ - юго-западный, З - западный, СЗ - северо-западный.
Видимость - горизонтальная дальность видимости в метрах или километрах. При видимости от 1 до 10 км при отсутствии осадков обычно наблюдается дымка, при ухудшении видимости до 1 км и менее - туман. В сухую погоду видимость может ухудшаться дымом, пылью или мглою.
Явления - указаны атмосферные явления, наблюдавшиеся в срок или в последний час перед сроком; фигурными скобками обозначены явления, наблюдавшиеся между сроками (за 1-3 часа до срока); квадратными скобками обозначены град или гололедные отложения с указанием их диаметра в мм.
Облачность - указаны через наклонную черту общая и нижняя облачность в баллах и высота нижней границы облаков в метрах; квадратными скобками обозначены формы облаков: Ci - перистые, Cs - перисто-слоистые, Cc - перисто-кучевые, Ac - высококучевые, As - высокослоистые, Sc - слоисто-кучевые, Ns - слоисто-дождевые, Cu - кучевые, Cb - кучево-дождевые. Подробнее классификацию облаков см. в Атласе облаков (PDF).
T - Температура воздуха - температура, измеренная на высоте 2 м над землей.
Td - Температура точки росы - температура, при понижении до которой содержащийся в воздухе водяной пар достигнет насыщения.
f - Относительная влажность воздуха - влажноcть воздуха, измеренная на высоте 2 м над землей.
Te - Эффективная температура - температура, которую ощущает одетый по сезону человек в тени. Характеристика душности погоды. При расчете учитывается влияние влажности воздуха и скорости ветра на теплоощущения человека.
Tes - Эффективная температура на солнце - температура, которую ощущает человек, с поправкой на солнечный нагрев. Характеристика знойности погоды. Зависит от высоты солнца над горизонтом, облачности и скорости ветра. Ночью, в пасмурную погоду, а также при ветре 12 м/с и более поправка равна нулю.
P - Атмосферное давление - приведенное к уровню моря атмосферное давление.
Po - Атмосферное давление - измеренное на уровне метеостанции атмосферное давление.
Tmin - Минимальная температура - минимум температуры воздуха на высоте 2 м над землей.
Tmax - Максимальная температура - максимум температуры воздуха на высоте 2 м над землей.
R - Количество осадков - Количество выпавших осадков за период времени, мм. При наведении курсора мыши на число - период времени, за который выпало указанное количество осадков.
R24 - Количество осадков - Количество выпавших осадков за 24 часа, мм.
S - Снежный покров - Высота снежного покрова, см. При наведении курсора мыши на число - состояние снежного покрова и степень покрытия местности в баллах.